[[{"header":{"parameterUnit":"m.s-1","parameterCategory":1,"la1":30.2991,"la2":30.254,"lo1":-89.0895,"lo2":-89.0444,"dy":0.0017,"dx":0.0017,"nx":28,"ny":28,"refTime":"2023-11-05T03:00:00:Z","depth":0,"parameterNumber":2,"parameterNumberName":"U-component_of_WINDS"},"data":[0,0,0,0,0,0,0,0,0,0,0,0,0,0,0,0,0,0,0,0,0,0,0,0,0,0,0,0,0,0,0,0,0,0,0,0,0,0,0,0,0,0,0,0,0,0,0,0,0,0,0,0,0,0,0,0,0,0,0.3546,0.3547,0,0.3583,0.3584,0.3584,0.3565,0.3564,0.3563,0.3562,0.3603,0.3605,0.3607,0,0,0,0,0,0,0,0,0,0,0,0,0,0.3461,0.3463,0.3546,0.3547,0.3547,0.3583,0.3584,0.3584,0.3565,0.3564,0.3563,0.3562,0.3603,0.3605,0.3607,0,0,0,0,0,0,0,0,0,0,0,0,0,0.3498,0.3463,0.3546,0.3542,0.3542,0.3583,0.3584,0.3585,0.3566,0.3564,0.3563,0.3561,0.3602,0.3605,0.3608,0.3656,0,0,0.3617,0.3618,0,0,0,0,0,0,0,0,0.3496,0.3501,0.3542,0.3542,0.3542,0.3568,0.3569,0.3609,0.3566,0.3557,0.3562,0.356,0.3593,0.3597,0.3607,0.3658,0.366,0.3617,0.3619,0.362,0.3621,0,0,0,0,0,0,0,0.3494,0.35,0.3561,0.3543,0.3543,0.3539,0.3543,0.3576,0.3583,0.3557,0.3556,0.3561,0.3593,0.3604,0.3608,0.3661,0.3617,0.362,0.3622,0.3623,0.3753,0.3755,0,0,0,0,0,0,0.3491,0.3498,0.356,0.3562,0.3515,0.3542,0.3546,0.3561,0.3582,0.3584,0.3562,0.356,0.36,0.3604,0.3609,0.3667,0.362,0.3623,0.3625,0.3752,0.3754,0.3755,0,0,0,0,0,0,0.3489,0.3497,0.3558,0.353,0.3537,0.3545,0.3562,0.3563,0.3574,0.3586,0.3587,0.3572,0.3599,0.3605,0.3644,0.3668,0.3625,0.3627,0.375,0.3752,0.3755,0.3784,0,0,0,0,0,0,0.3487,0.3496,0.3514,0.353,0.3539,0.3592,0.3564,0.3565,0.3579,0.3576,0.3596,0.3597,0.3598,0.364,0.3647,0.3672,0.363,0.3748,0.3751,0.3754,0.3781,0.3787,0.3793,0,0,0,0,0,0.3484,0.3522,0.3515,0.3523,0.3561,0.3594,0.3599,0.3598,0.3581,0.36,0.3607,0.3597,0.3664,0.3644,0.3652,0.3678,0.3746,0.375,0.3753,0.3778,0.3786,0.3792,0,0,0,0,0,0,0.351,0.3524,0.3517,0.3561,0.3576,0.3591,0.3614,0.3606,0.3627,0.3624,0.3623,0.3627,0.3668,0.3677,0.3654,0.3726,0.3703,0.3708,0.3719,0.3726,0.3732,0.3729,0.3632,0,0,0,0,0,0.352,0.3545,0.3556,0.3594,0.3602,0.3606,0.3621,0.3618,0.3635,0.3642,0.3652,0.3669,0.3694,0.371,0.3734,0.3782,0.3786,0.3804,0.3809,0.3814,0.3819,0.3845,0.3853,0.3768,0.3768,0.3767,0,0,0.3543,0.3554,0.3569,0.3599,0.3611,0.3637,0.3612,0.3641,0.3661,0.3646,0.3684,0.3692,0.3711,0.3755,0.3774,0.3763,0.3843,0.3819,0.3822,0.3825,0.3849,0.3858,0.3865,0.377,0.377,0.3769,0,0,0.3597,0.3608,0.364,0.3652,0.367,0.3672,0.368,0.3696,0.37,0.3738,0.3727,0.3751,0.3794,0.3808,0.382,0.3879,0.3871,0.3887,0.3918,0.3943,0.3949,0.3955,0.3977,0.3984,0.3892,0.3892,0.3892,0,0.3624,0.3662,0.3658,0.3688,0.3701,0.3688,0.3721,0.3733,0.3758,0.3768,0.3755,0.3808,0.382,0.3867,0.3881,0.3891,0.3901,0.3885,0.3949,0.3955,0.396,0.398,0.3988,0.3894,0.3894,0.3893,0.3893,0,0.3693,0.372,0.3744,0.3767,0.3783,0.3815,0.3816,0.3833,0.3829,0.3834,0.3872,0.3886,0.3912,0.3922,0.3919,0.3969,0.3961,0.3948,0.3925,0.397,0.3989,0.3997,0.3896,0.3896,0.3895,0.3895,0,0,0.3766,0.3786,0.3795,0.3805,0.3823,0.3844,0.3875,0.3899,0.3914,0.3931,0.3957,0.3993,0.3981,0.3995,0.3994,0.4016,0.4061,0.4,0.4,0.4011,0.4117,0.4127,0.4136,0.4055,0.4057,0.4058,0.4115,0,0.3822,0.3875,0.3872,0.3922,0.3946,0.3934,0.3961,0.3975,0.3979,0.4002,0.4007,0.4033,0.4015,0.4023,0.4044,0.4051,0.4083,0.4047,0.408,0.4082,0.4076,0.4145,0.4156,0.4209,0.4122,0.4124,0.4125,0,0.3895,0.3913,0.3965,0.3979,0.3989,0.4013,0.4035,0.4056,0.4072,0.4074,0.4089,0.4084,0.4115,0.409,0.4134,0.411,0.4123,0.4128,0.413,0.4134,0.4106,0.4151,0.4226,0.4234,0.4136,0.4135,0.4135,0,0.3943,0.3981,0.4017,0.4026,0.4043,0.406,0.4068,0.4082,0.4097,0.4116,0.4126,0.4149,0.4162,0.418,0.4181,0.4162,0.4225,0.42,0.4228,0.4228,0.4242,0.4241,0.4321,0.425,0.425,0.425,0.4249,0,0.4006,0.4039,0.4039,0.4061,0.4097,0.4093,0.4129,0.4136,0.4148,0.4172,0.4162,0.4185,0.4184,0.4207,0.4208,0.4244,0.425,0.4253,0.4253,0.4254,0.4254,0.4263,0.426,0.4252,0.4251,0.4251,0.425,0,0.4067,0.4068,0.4106,0.4119,0.4122,0.4148,0.4159,0.4181,0.4184,0.4214,0.422,0.4226,0.4252,0.4255,0.4286,0.4286,0.433,0.4326,0.4324,0.4324,0.4351,0.4349,0.444,0.4452,0.4373,0.4374,0.4374,0,0.4107,0.4132,0.4146,0.4161,0.4169,0.4193,0.4208,0.4205,0.4221,0.424,0.4259,0.4284,0.4305,0.4347,0.4355,0.4378,0.4375,0.4405,0.4378,0.4378,0.4375,0.4374,0.4376,0.441,0.4411,0.4412,0.4413,0,0.4179,0.4178,0.4199,0.422,0.4237,0.4254,0.427,0.4282,0.4282,0.43,0.4326,0.4342,0.4372,0.4398,0.442,0.4429,0.4421,0.4421,0.4428,0.443,0.4428,0.443,0.4339,0.4419,0.4418,0.4418,0.4418,0.4417,0.4231,0.4252,0.4265,0.4289,0.43,0.4314,0.4335,0.434,0.4361,0.4386,0.4383,0.4412,0.4427,0.4457,0.4467,0.449,0.448,0.4491,0.4494,0.4497,0.45,0.4424,0.4494,0.4494,0.4494,0.4494,0.4494,0,0.4303,0.431,0.4332,0.4353,0.4372,0.4361,0.4377,0.4394,0.4419,0.4433,0.4453,0.4483,0.4507,0.4515,0.4539,0.4556,0.4553,0.4562,0.4561,0.4563,0.4508,0.4499,0.4564,0.4564,0.4564,0.4564,0.4564,0.4564,0.4342,0.4377,0.4377,0.4417,0.4425,0.4453,0.4463,0.4476,0.4488,0.4521,0.4541,0.4546,0.4558,0.4582,0.4604,0.4606,0.4615,0.4626,0.4626,0.4574,0.4567,0.4561,0.4552,0.4628,0.4628,0.468,0.4681,0.4681]},{"header":{"parameterUnit":"m.s-1","parameterCategory":1,"la1":30.2991,"la2":30.254,"lo1":-89.0895,"lo2":-89.0444,"dy":0.0017,"dx":0.0017,"nx":28,"ny":28,"refTime":"2023-11-05T03:00:00:Z","depth":0,"parameterNumber":3,"parameterNumberName":"V-component_of_WINDS"},"data":[0,0,0,0,0,0,0,0,0,0,0,0,0,0,0,0,0,0,0,0,0,0,0,0,0,0,0,0,0,0,0,0,0,0,0,0,0,0,0,0,0,0,0,0,0,0,0,0,0,0,0,0,0,0,0,0,0,0,-0.1402,-0.1402,0,-0.1419,-0.1419,-0.1419,-0.1456,-0.1456,-0.1457,-0.1458,-0.1476,-0.1476,-0.1476,0,0,0,0,0,0,0,0,0,0,0,0,0,-0.1405,-0.1405,-0.1402,-0.1402,-0.1402,-0.1419,-0.1419,-0.1419,-0.1456,-0.1456,-0.1457,-0.1458,-0.1476,-0.1476,-0.1476,0,0,0,0,0,0,0,0,0,0,0,0,0,-0.1411,-0.1405,-0.1402,-0.1422,-0.1424,-0.1419,-0.1419,-0.1419,-0.1455,-0.1457,-0.1458,-0.1459,-0.1476,-0.1476,-0.1476,-0.1451,0,0,-0.1475,-0.1474,0,0,0,0,0,0,0,0,-0.1411,-0.1411,-0.1419,-0.1421,-0.1423,-0.1436,-0.1427,-0.143,-0.1455,-0.1444,-0.1458,-0.1459,-0.1462,-0.1463,-0.1464,-0.1452,-0.1453,-0.1475,-0.1474,-0.1474,-0.1474,0,0,0,0,0,0,0,-0.141,-0.141,-0.1409,-0.1419,-0.1422,-0.1432,-0.1434,-0.1428,-0.1446,-0.1445,-0.1447,-0.1449,-0.1463,-0.1464,-0.1464,-0.1453,-0.1475,-0.1474,-0.1474,-0.1474,-0.1428,-0.1427,0,0,0,0,0,0,-0.1407,-0.141,-0.1408,-0.1409,-0.142,-0.1431,-0.1433,-0.1431,-0.1447,-0.145,-0.1448,-0.1451,-0.1464,-0.1465,-0.1465,-0.1441,-0.1474,-0.1474,-0.1474,-0.1429,-0.1427,-0.1426,0,0,0,0,0,0,-0.1406,-0.1406,-0.1407,-0.141,-0.1411,-0.143,-0.1427,-0.1431,-0.1431,-0.1449,-0.1453,-0.1445,-0.1465,-0.1466,-0.1455,-0.1442,-0.1474,-0.1473,-0.143,-0.1428,-0.1427,-0.139,0,0,0,0,0,0,-0.1406,-0.1406,-0.1395,-0.141,-0.1411,-0.1396,-0.1426,-0.143,-0.143,-0.1434,-0.1447,-0.145,-0.1466,-0.1456,-0.1455,-0.1442,-0.1473,-0.1431,-0.1429,-0.1427,-0.1393,-0.1388,-0.1383,0,0,0,0,0,-0.1406,-0.1384,-0.1395,-0.1394,-0.1398,-0.1395,-0.1396,-0.1414,-0.1429,-0.142,-0.1432,-0.145,-0.1443,-0.1454,-0.1454,-0.1441,-0.1432,-0.143,-0.1428,-0.1395,-0.1389,-0.1383,0,0,0,0,0,0,-0.1367,-0.1386,-0.1398,-0.1379,-0.1385,-0.1401,-0.139,-0.1406,-0.1408,-0.1411,-0.1434,-0.1437,-0.1424,-0.1431,-0.1443,-0.1421,-0.1441,-0.1438,-0.1416,-0.1411,-0.1406,-0.1405,-0.1473,0,0,0,0,0,-0.1356,-0.1351,-0.1368,-0.135,-0.1352,-0.1371,-0.137,-0.1384,-0.1391,-0.1394,-0.1405,-0.1412,-0.1412,-0.1411,-0.1412,-0.1394,-0.1399,-0.1385,-0.138,-0.1376,-0.1374,-0.1369,-0.1364,-0.1419,-0.1419,-0.1419,0,0,-0.1333,-0.1343,-0.1338,-0.1342,-0.1348,-0.1345,-0.1372,-0.1366,-0.1364,-0.1393,-0.1385,-0.1393,-0.1403,-0.139,-0.1385,-0.1396,-0.1361,-0.1373,-0.137,-0.137,-0.1366,-0.1361,-0.1357,-0.1417,-0.1417,-0.1418,0,0,-0.129,-0.1296,-0.1283,-0.129,-0.13,-0.1313,-0.131,-0.1324,-0.1331,-0.1323,-0.1346,-0.1345,-0.1343,-0.1351,-0.1354,-0.1318,-0.1336,-0.1318,-0.1293,-0.1288,-0.1284,-0.128,-0.1271,-0.1266,-0.1315,-0.1315,-0.1315,0,-0.1261,-0.1255,-0.1275,-0.1268,-0.1271,-0.1298,-0.1287,-0.1292,-0.1301,-0.1303,-0.1315,-0.1317,-0.1325,-0.1316,-0.1308,-0.1308,-0.1308,-0.1317,-0.1283,-0.1279,-0.1276,-0.1267,-0.1263,-0.1313,-0.1314,-0.1314,-0.1314,0,-0.1221,-0.1216,-0.1205,-0.1215,-0.1216,-0.1207,-0.1228,-0.1227,-0.1241,-0.1253,-0.1248,-0.1259,-0.1264,-0.1263,-0.1276,-0.1257,-0.1263,-0.1278,-0.13,-0.1269,-0.1261,-0.1257,-0.131,-0.1311,-0.1312,-0.1312,0,0,-0.1152,-0.1175,-0.1171,-0.1178,-0.1192,-0.119,-0.1184,-0.1189,-0.119,-0.1196,-0.1193,-0.1193,-0.1209,-0.1213,-0.1227,-0.1222,-0.1198,-0.1239,-0.124,-0.1233,-0.1181,-0.1171,-0.1167,-0.1209,-0.1209,-0.1208,-0.1182,0,-0.1114,-0.1105,-0.1124,-0.111,-0.1109,-0.1136,-0.1131,-0.114,-0.1152,-0.1154,-0.1168,-0.1169,-0.1187,-0.1191,-0.1187,-0.1201,-0.1188,-0.1203,-0.1209,-0.1209,-0.1208,-0.1162,-0.1151,-0.1125,-0.1178,-0.1178,-0.1177,0,-0.1069,-0.1075,-0.1061,-0.108,-0.108,-0.1075,-0.1084,-0.1085,-0.1097,-0.1107,-0.1113,-0.1131,-0.1128,-0.1148,-0.1147,-0.1157,-0.1161,-0.1169,-0.1168,-0.1171,-0.1192,-0.1166,-0.1117,-0.1114,-0.1172,-0.1173,-0.1173,0,-0.1024,-0.1028,-0.1022,-0.1026,-0.1047,-0.1044,-0.1053,-0.1066,-0.107,-0.1078,-0.1081,-0.1088,-0.1092,-0.1099,-0.1119,-0.1131,-0.1117,-0.1137,-0.1126,-0.1126,-0.1123,-0.1123,-0.1076,-0.1122,-0.1122,-0.1122,-0.1122,0,-0.0981,-0.0973,-0.1003,-0.0999,-0.0991,-0.1014,-0.1007,-0.1018,-0.1031,-0.1031,-0.1054,-0.1054,-0.108,-0.1084,-0.11,-0.1099,-0.11,-0.1109,-0.1114,-0.1108,-0.1107,-0.1112,-0.1115,-0.1121,-0.1121,-0.1121,-0.1122,0,-0.093,-0.095,-0.0945,-0.0966,-0.0971,-0.0965,-0.0984,-0.0983,-0.0997,-0.0998,-0.0999,-0.1022,-0.1028,-0.1049,-0.106,-0.1071,-0.1065,-0.1073,-0.1061,-0.1064,-0.1053,-0.1055,-0.1009,-0.1005,-0.1051,-0.1051,-0.1051,0,-0.0903,-0.0897,-0.0919,-0.0921,-0.0929,-0.0931,-0.0936,-0.0959,-0.0963,-0.0979,-0.0976,-0.0984,-0.0992,-0.1,-0.1019,-0.1028,-0.1038,-0.1021,-0.1039,-0.1035,-0.1041,-0.1041,-0.1042,-0.1017,-0.1017,-0.1016,-0.1016,0,-0.0853,-0.0864,-0.0869,-0.0878,-0.0883,-0.0891,-0.0901,-0.0902,-0.0928,-0.0932,-0.0939,-0.0945,-0.0957,-0.0966,-0.0979,-0.0989,-0.1008,-0.101,-0.1009,-0.1003,-0.0998,-0.1004,-0.1053,-0.1011,-0.1012,-0.1012,-0.1012,-0.1012,-0.0815,-0.0812,-0.0828,-0.0834,-0.0844,-0.0854,-0.0855,-0.087,-0.0876,-0.0888,-0.0902,-0.0908,-0.0924,-0.0943,-0.0953,-0.0959,-0.0969,-0.0966,-0.0965,-0.0965,-0.0963,-0.0996,-0.0961,-0.0961,-0.0961,-0.0962,-0.0962,0,-0.0769,-0.0781,-0.0786,-0.08,-0.0805,-0.0822,-0.0835,-0.0839,-0.0844,-0.0857,-0.0865,-0.0875,-0.0884,-0.0904,-0.0916,-0.0917,-0.0926,-0.092,-0.0921,-0.0923,-0.0952,-0.0954,-0.0912,-0.0912,-0.0912,-0.0912,-0.0912,-0.0912,-0.0745,-0.0744,-0.0757,-0.0761,-0.0774,-0.078,-0.0786,-0.0796,-0.0807,-0.0817,-0.0825,-0.0838,-0.0855,-0.0869,-0.0879,-0.0885,-0.0889,-0.088,-0.0889,-0.0916,-0.0921,-0.0925,-0.0927,-0.088,-0.088,-0.086,-0.086,-0.086]}]]